User: anonymous   Login
Location: Alafon
(8.4500°N, 4.2333°E)
Time: 07:51:04
(UTC+00:00)
Language:

Cosmos 2322 - Orbit

View from above orbital plane
View from above orbital plane
View from above satellite
View from above satellite

Ground track
Ground track

The orbit data is extracted from the following two-line orbital elements,

1 23704U 95058A   20265.90250022  .00000299  00000-0  18404-3 0  9998
2 23704  70.9861  63.7860 0007871  87.0916 273.1106 14.13427901284368
Epoch (UTC): 21 September 2020 21:39:36
Eccentricity: 0.0007871
inclination: 70.9861°
perigee height: 842 km
apogee height: 853 km
right ascension of ascending node: 63.7860°
argument of perigee: 87.0916°
revolutions per day: 14.13427901
mean anomaly at epoch: 273.1106°
orbit number at epoch: 28436

The dashed part of the orbit path shows where the satellite is in the earth's shadow,  

DLR